Lafayette, LA

9:39 AM CST on January 23, 2017 (GMT -0600)
Lafayette Regional

Weather History for KLFT - March, 2011

Change the Weather History Date:

Sunday, March 27, 2011

  Actual Average Record
Temperature  
Mean Temperature 74 °F 64 °F  
Max Temperature 85 °F 75 °F 87 °F (1910)
Min Temperature 62 °F 54 °F 29 °F (1955)
Degree Days  
Heating Degree Days 0 3  
Month to date heating degree days 61 138  
Since 1 July heating degree days 1511 1368  
Cooling Degree Days 9 3  
Month to date cooling degree days 104 51  
Year to date cooling degree days 161 83  
Growing Degree Days 24 (Base 50)    
Moisture  
Dew Point 65 °F    
Average Humidity 67    
Maximum Humidity 90    
Minimum Humidity 44    
Precipitation  
Precipitation 0.00 in 0.12 in 1.80 in (1914)
Month to date precipitation 2.05 3.33  
Year to date precipitation 8.29 13.45  
Snow  
Snow 0.00 in 0.00 in 0.00 in ()
Month to date snowfall 0.0 0.0  
Since 1 July snowfall 0.0 T  
Snow Depth 0.00 in    
Sea Level Pressure  
Sea Level Pressure 29.80 in    
Wind  
Wind Speed 5 mph (ENE)    
Max Wind Speed 13 mph    
Max Gust Speed 17 mph    
Visibility 8 miles    
Events      
T = Trace of Precipitation, MM = Missing Value Source: NWS Daily Summary

Daily Weather History Graph

Daily Weather History Graph

Search for Another Location

Airport or City:

Trip Planner

Search our weather history database for the weather conditions in past years. The results will help you decide how hot, cold, wet, or windy it might be!

Date:

Astronomy

Mar. 27, 2011 Rise Set
Actual Time 7:03 AM CDT 7:23 PM CDT
Civil Twilight 6:39 AM CDT 7:47 PM CDT
Nautical Twilight 6:11 AM CDT 8:15 PM CDT
Astronomical Twilight 5:43 AM CDT 8:44 PM CDT
Moon 2:50 AM CDT (3/27) 1:30 PM CDT (3/27)
Length of Visible Light 13h 08m
Length of Day
12h 20m
Last Quarter, 38% of the Moon is Illuminated
Mar 27
Last Quarter
Apr 3
New
Apr 11
First Quarter
Apr 17
Full
Apr 24
Last Quarter

Hourly Weather History & Observations

Time (CDT) Temp. Heat Index Dew Point Humidity Pressure Visibility Wind Dir Wind Speed Gust Speed Precip Events Conditions
12:53 AM 73.0 °F - 68.0 °F 84% 29.78 in 9.0 mi South 6.9 mph - N/A   Clear
1:53 AM 73.0 °F - 68.0 °F 84% 29.76 in 8.0 mi SSW 5.8 mph - N/A   Clear
2:53 AM 72.0 °F - 68.0 °F 87% 29.77 in 7.0 mi SSW 4.6 mph - N/A   Clear
3:53 AM 72.0 °F - 68.0 °F 87% 29.75 in 7.0 mi SSW 5.8 mph - N/A   Clear
4:53 AM 71.1 °F - 66.9 °F 87% 29.76 in 6.0 mi SSW 4.6 mph - N/A   Scattered Clouds
5:53 AM 71.1 °F - 68.0 °F 90% 29.78 in 4.0 mi Calm Calm - N/A   Scattered Clouds
6:17 AM 71.6 °F - 68.0 °F 88% 29.79 in 5.0 mi NNW 3.5 mph - N/A   Mostly Cloudy
6:53 AM 73.0 °F - 69.1 °F 87% 29.81 in 7.0 mi Calm Calm - N/A   Overcast
7:26 AM 71.6 °F - 69.8 °F 94% 29.80 in 4.0 mi Calm Calm - N/A   Overcast
7:53 AM 72.0 °F - 68.0 °F 87% 29.81 in 3.0 mi Calm Calm - N/A   Overcast
8:53 AM 73.4 °F - 69.8 °F 88% 29.81 in 5.0 mi Calm Calm - N/A   Overcast
9:22 AM 73.4 °F - 69.8 °F 88% 29.83 in 6.0 mi Calm Calm - N/A   Haze
9:34 AM 75.2 °F - 69.8 °F 83% 29.83 in 6.0 mi Calm Calm - N/A   Haze
9:53 AM 73.9 °F - 70.0 °F 87% 29.83 in 6.0 mi Calm Calm - N/A   Overcast
10:53 AM 69.1 °F - 62.1 °F 78% 29.84 in 8.0 mi NNE 8.1 mph - N/A   Mostly Cloudy
11:06 AM 69.8 °F - 60.8 °F 73% 29.85 in 9.0 mi North 9.2 mph - N/A   Mostly Cloudy
11:53 AM 73.9 °F - 63.0 °F 68% 29.84 in 10.0 mi NE 3.5 mph - N/A   Scattered Clouds
12:53 PM 80.1 °F 82.1 °F 66.0 °F 62% 29.81 in 10.0 mi Variable 5.8 mph - N/A   Clear
1:42 PM 82.4 °F 84.6 °F 66.2 °F 58% 29.80 in 10.0 mi Variable 4.6 mph - N/A   Mostly Cloudy
1:53 PM 81.0 °F 83.3 °F 66.9 °F 62% 29.79 in 10.0 mi NE 4.6 mph - N/A   Mostly Cloudy
2:07 PM 82.4 °F 84.6 °F 66.2 °F 58% 29.78 in 10.0 mi ENE 4.6 mph - N/A   Mostly Cloudy
2:53 PM 84.0 °F 84.4 °F 61.0 °F 46% 29.77 in 10.0 mi South 11.5 mph - N/A   Overcast
3:53 PM 84.0 °F 85.4 °F 64.0 °F 51% 29.75 in 10.0 mi Variable 5.8 mph - N/A   Partly Cloudy
4:53 PM 84.0 °F 84.9 °F 63.0 °F 49% 29.76 in 10.0 mi South 10.4 mph - N/A   Clear
5:53 PM 82.0 °F 83.8 °F 64.9 °F 56% 29.76 in 10.0 mi Variable 3.5 mph - N/A   Clear
6:53 PM 80.6 °F 82.7 °F 66.2 °F 61% 29.76 in 10.0 mi South 4.6 mph - N/A   Clear
7:53 PM 75.0 °F - 62.1 °F 64% 29.79 in 10.0 mi North 9.2 mph - N/A   Overcast
8:53 PM 71.1 °F - 59.0 °F 66% 29.82 in 10.0 mi North 8.1 mph - N/A   Partly Cloudy
9:53 PM 66.0 °F - 57.0 °F 73% 29.83 in 10.0 mi NNE 5.8 mph - N/A   Clear
10:53 PM 64.0 °F - 57.0 °F 78% 29.84 in 10.0 mi North 4.6 mph - N/A   Clear
11:53 PM 62.1 °F - 55.0 °F 78% 29.85 in 10.0 mi NE 3.5 mph - N/A   Clear